• In Uzbekistan
  • List of Countries
  • For 7 days
  • Water Temperature
  • Satellite Maps
  • Weather Map
  • Weather Widgets
  • user-avatar
    Login

    Hourly Weather Cordeiropolis

    Today, 12 December, Tuesday

    Time Temperature Precipitation Wind Pressure Humidity
    00:00 +21°C° 0.8 mm 4 mps 702 mmHg 84%
    01:00 +20°C° 0.4 mm 4 mps 702 mmHg 84%
    02:00 +20°C° 0.4 mm 4 mps 703 mmHg 84%
    03:00 +20°C° 0.4 mm 4 mps 703 mmHg 84%
    04:00 +20°C° 0.1 mm 4 mps 703 mmHg 85%
    05:00 +20°C° 0.1 mm 4 mps 703 mmHg 85%
    06:00 +20°C° 0.1 mm 3 mps 703 mmHg 85%
    07:00 +21°C° 0 mm 4 mps 704 mmHg 79%
    08:00 +23°C° 0 mm 4 mps 705 mmHg 72%
    09:00 +26°C° 0 mm 5 mps 705 mmHg 66%
    10:00 +27°C° 0.1 mm 4 mps 705 mmHg 62%
    11:00 +28°C° 0.1 mm 4 mps 705 mmHg 57%
    12:00 +30°C° 0.1 mm 4 mps 705 mmHg 53%
    13:00 +29°C° 0.3 mm 5 mps 705 mmHg 55%
    14:00 +29°C° 0.3 mm 5 mps 705 mmHg 56%
    15:00 +29°C° 0.3 mm 5 mps 704 mmHg 57%
    16:00 +28°C° 0 mm 5 mps 704 mmHg 61%
    17:00 +26°C° 0 mm 5 mps 704 mmHg 65%
    18:00 +25°C° 0 mm 5 mps 704 mmHg 69%
    19:00 +23°C° 0 mm 5 mps 704 mmHg 71%
    20:00 +22°C° 0 mm 5 mps 705 mmHg 72%
    21:00 +21°C° 0 mm 5 mps 705 mmHg 74%
    22:00 +20°C° 0 mm 4 mps 705 mmHg 75%
    23:00 +20°C° 0 mm 3 mps 706 mmHg 76%

    Tomorrow, 13 December, Wednesday

    Time Temperature Precipitation Wind Pressure Humidity
    00:00 +20°C° 0 mm 3 mps 706 mmHg 77%
    01:00 +19°C° 0 mm 3 mps 705 mmHg 78%
    02:00 +19°C° 0 mm 3 mps 705 mmHg 79%
    03:00 +19°C° 0 mm 2 mps 705 mmHg 80%
    04:00 +19°C° 0 mm 2 mps 705 mmHg 81%
    05:00 +18°C° 0 mm 2 mps 705 mmHg 83%
    06:00 +18°C° 0 mm 2 mps 705 mmHg 84%
    07:00 +20°C° 0 mm 2 mps 706 mmHg 77%
    08:00 +23°C° 0 mm 2 mps 707 mmHg 70%
    09:00 +26°C° 0 mm 3 mps 707 mmHg 63%
    10:00 +27°C° 0 mm 2 mps 707 mmHg 58%
    11:00 +29°C° 0 mm 2 mps 707 mmHg 53%
    12:00 +31°C° 0 mm 2 mps 707 mmHg 48%
    13:00 +31°C° 0 mm 2 mps 706 mmHg 49%
    14:00 +30°C° 0 mm 2 mps 706 mmHg 50%
    15:00 +30°C° 0 mm 2 mps 705 mmHg 50%
    16:00 +29°C° 0 mm 3 mps 705 mmHg 55%
    17:00 +29°C° 0 mm 3 mps 705 mmHg 59%
    18:00 +28°C° 0 mm 3 mps 705 mmHg 63%
    19:00 +26°C° 0 mm 3 mps 705 mmHg 67%
    20:00 +25°C° 0 mm 3 mps 706 mmHg 71%
    21:00 +22°C° 0 mm 4 mps 706 mmHg 75%
    22:00 +22°C° 0 mm 3 mps 706 mmHg 78%
    23:00 +21°C° 0 mm 3 mps 706 mmHg 80%

    Day after tomorrow, 14 December, Thursday

    Time Temperature Precipitation Wind Pressure Humidity
    00:00 +20°C° 0 mm 2 mps 707 mmHg 83%
    01:00 +20°C° 0 mm 2 mps 706 mmHg 84%
    02:00 +20°C° 0 mm 2 mps 706 mmHg 86%
    03:00 +20°C° 0 mm 1 mps 706 mmHg 88%
    04:00 +20°C° 0 mm 1 mps 706 mmHg 88%
    05:00 +20°C° 0 mm 1 mps 706 mmHg 88%
    06:00 +20°C° 0 mm 1 mps 706 mmHg 89%
    07:00 +22°C° 0 mm 1 mps 706 mmHg 80%
    08:00 +24°C° 0 mm 2 mps 707 mmHg 72%
    09:00 +26°C° 0 mm 2 mps 707 mmHg 63%
    10:00 +28°C° 0 mm 1 mps 707 mmHg 59%
    11:00 +30°C° 0 mm 1 mps 707 mmHg 54%
    12:00 +32°C° 0 mm 1 mps 707 mmHg 49%
    13:00 +32°C° 0 mm 1 mps 706 mmHg 49%
    14:00 +32°C° 0 mm 1 mps 705 mmHg 48%
    15:00 +31°C° 0 mm 1 mps 705 mmHg 48%
    16:00 +31°C° 0.1 mm 1 mps 704 mmHg 51%
    17:00 +30°C° 0.1 mm 1 mps 704 mmHg 54%
    18:00 +29°C° 0.1 mm 2 mps 704 mmHg 57%
    19:00 +28°C° 0 mm 2 mps 704 mmHg 60%
    20:00 +27°C° 0 mm 2 mps 705 mmHg 63%
    21:00 +25°C° 0 mm 2 mps 705 mmHg 66%
    22:00 +24°C° 0 mm 2 mps 705 mmHg 70%
    23:00 +24°C° 0 mm 2 mps 705 mmHg 74%

    15 December, Friday

    Time Temperature Precipitation Wind Pressure Humidity
    00:00 +23°C° 0 mm 2 mps 705 mmHg 77%
    01:00 +21°C° 0 mm 2 mps 704 mmHg 78%
    02:00 +21°C° 0 mm 2 mps 704 mmHg 80%
    03:00 +21°C° 0 mm 2 mps 704 mmHg 81%
    04:00 +21°C° 0 mm 2 mps 704 mmHg 82%
    05:00 +21°C° 0 mm 1 mps 704 mmHg 84%
    06:00 +21°C° 0 mm 1 mps 705 mmHg 86%
    07:00 +23°C° 0 mm 1 mps 705 mmHg 78%
    08:00 +25°C° 0 mm 2 mps 706 mmHg 71%
    09:00 +28°C° 0 mm 2 mps 706 mmHg 63%
    10:00 +29°C° 0 mm 2 mps 706 mmHg 57%
    11:00 +31°C° 0 mm 2 mps 706 mmHg 50%
    12:00 +32°C° 0 mm 1 mps 706 mmHg 44%
    13:00 +32°C° 0 mm 2 mps 705 mmHg 41%
    14:00 +34°C° 0 mm 2 mps 704 mmHg 39%
    15:00 +34°C° 0 mm 2 mps 704 mmHg 36%
    16:00 +32°C° 0 mm 2 mps 703 mmHg 40%
    17:00 +31°C° 0 mm 2 mps 703 mmHg 44%
    18:00 +30°C° 0 mm 1 mps 703 mmHg 48%
    19:00 +28°C° 0 mm 2 mps 703 mmHg 50%
    20:00 +27°C° 0 mm 2 mps 703 mmHg 51%
    21:00 +25°C° 0 mm 3 mps 704 mmHg 53%
    22:00 +24°C° 0 mm 2 mps 704 mmHg 58%
    23:00 +23°C° 0 mm 2 mps 704 mmHg 62%

    16 December, Saturday

    Time Temperature Precipitation Wind Pressure Humidity
    00:00 +21°C° 0 mm 2 mps 704 mmHg 67%
    01:00 +21°C° 0 mm 2 mps 704 mmHg 70%
    02:00 +20°C° 0 mm 2 mps 703 mmHg 73%
    03:00 +21°C° 0 mm 1 mps 703 mmHg 76%
    04:00 +21°C° 0 mm 1 mps 703 mmHg 78%
    05:00 +21°C° 0 mm 1 mps 704 mmHg 80%
    06:00 +21°C° 0 mm 1 mps 704 mmHg 81%
    07:00 +23°C° 0 mm 2 mps 705 mmHg 74%
    08:00 +26°C° 0 mm 2 mps 705 mmHg 66%
    09:00 +28°C° 0 mm 2 mps 706 mmHg 59%
    10:00 +29°C° 0 mm 2 mps 705 mmHg 54%
    11:00 +31°C° 0 mm 2 mps 705 mmHg 48%
    12:00 +33°C° 0 mm 1 mps 705 mmHg 43%
    13:00 +33°C° 0 mm 1 mps 704 mmHg 42%
    14:00 +33°C° 0 mm 1 mps 704 mmHg 42%
    15:00 +33°C° 0 mm 1 mps 703 mmHg 41%
    16:00 +32°C° 0 mm 1 mps 703 mmHg 44%
    17:00 +31°C° 0 mm 1 mps 703 mmHg 47%
    18:00 +30°C° 0 mm 1 mps 703 mmHg 51%
    19:00 +29°C° 0 mm 1 mps 703 mmHg 55%
    20:00 +27°C° 0 mm 2 mps 703 mmHg 59%
    21:00 +26°C° 0 mm 2 mps 704 mmHg 62%
    22:00 +25°C° 0 mm 2 mps 704 mmHg 66%
    23:00 +24°C° 0 mm 2 mps 704 mmHg 69%

    17 December, Sunday

    Time Temperature Precipitation Wind Pressure Humidity
    00:00 +24°C° 0 mm 2 mps 704 mmHg 72%
    01:00 +23°C° 0 mm 2 mps 703 mmHg 74%
    02:00 +23°C° 0 mm 2 mps 703 mmHg 76%
    03:00 +22°C° 0 mm 3 mps 703 mmHg 78%
    04:00 +21°C° 0 mm 2 mps 703 mmHg 80%
    05:00 +21°C° 0 mm 2 mps 704 mmHg 81%
    06:00 +21°C° 0 mm 2 mps 705 mmHg 83%
    07:00 +24°C° 0 mm 3 mps 705 mmHg 76%
    08:00 +26°C° 0 mm 3 mps 706 mmHg 68%
    09:00 +28°C° 0 mm 4 mps 707 mmHg 61%
    10:00 +29°C° 0.1 mm 3 mps 707 mmHg 57%
    11:00 +30°C° 0.1 mm 3 mps 707 mmHg 53%
    12:00 +31°C° 0.1 mm 3 mps 707 mmHg 49%
    13:00 +31°C° 0.1 mm 3 mps 706 mmHg 49%
    14:00 +31°C° 0.1 mm 3 mps 706 mmHg 49%
    15:00 +31°C° 0.1 mm 2 mps 706 mmHg 49%
    16:00 +30°C° 0.3 mm 2 mps 705 mmHg 54%
    17:00 +29°C° 0.3 mm 2 mps 705 mmHg 60%
    18:00 +28°C° 0.3 mm 2 mps 705 mmHg 65%
    19:00 +27°C° 0.3 mm 2 mps 706 mmHg 70%
    20:00 +25°C° 0.3 mm 2 mps 706 mmHg 75%
    21:00 +24°C° 0.3 mm 3 mps 706 mmHg 80%
    22:00 +23°C° 0.1 mm 2 mps 706 mmHg 81%
    23:00 +23°C° 0.1 mm 2 mps 706 mmHg 83%
    Show more